GFSFLT1_prec_cthk_141.txt.gz
RH
28 26 24 22 20 19 18 19 21 15 14 19 20 23 38 74 74 69 84 63 52 43 39 41 43 47 47 46 44 47 46 47
32 28 24 20 20 20 19 18 20 21 15 16 20 21 20 36 68 77 76 85 61 50 44 40 45 45 46 48 48 48 46 50
35 33 29 26 24 24 23 21 21 23 22 19 19 21 22 20 42 72 81 89 84 62 48 41 45 49 47 46 49 48 45 47
35 32 30 29 29 29 27 26 26 27 27 24 21 20 20 19 24 50 71 82 87 80 60 47 45 48 45 44 47 46 43 46
37 36 35 36 35 35 34 33 33 34 35 34 33 27 23 20 15 25 59 74 85 95 72 50 44 46 48 44 44 43 44 45
42 43 45 44 44 42 41 39 42 44 46 46 46 42 31 24 22 17 34 63 78 91 84 53 45 46 46 46 45 44 45 45
47 50 51 53 53 51 48 46 46 50 51 51 50 48 40 33 27 23 17 49 79 87 91 57 43 45 47 46 45 43 44 47
53 54 56 58 61 61 58 55 56 57 58 54 52 50 44 40 36 29 22 34 62 84 98 73 56 46 50 49 45 44 45 47
60 62 64 65 64 66 64 59 59 61 61 55 54 54 49 48 44 36 28 24 62 82 86 86 68 52 51 52 50 47 47 49
61 68 71 72 71 72 71 66 64 67 68 66 68 64 52 53 45 48 36 30 45 74 89 95 74 62 52 54 52 50 52 51
63 68 76 79 80 79 79 76 74 71 71 75 82 72 71 62 52 48 42 40 36 61 98 84 83 66 65 60 55 58 59 59
65 67 74 84 87 87 87 84 82 77 79 84 90 84 95 78 56 56 49 45 34 63 78 98 92 75 73 64 63 65 64 74
62 65 71 75 85 91 89 88 88 86 88 92 96 96 96 90 68 69 70 50 41 54 75 93 98 90 76 68 73 76 86 91
63 61 66 71 74 84 91 92 93 95 96 96 97 98 96 81 73 70 70 52 56 65 75 98 90 81 86 82 79 81 96 87
65 64 62 68 69 76 80 88 94 96 97 97 98 97 95 85 98 80 67 64 68 67 91 98 99 97 94 89 87 90 84 91
69 68 67 69 70 72 76 76 80 93 96 97 97 98 97 90 84 97 90 83 70 70 81 89 98 98 98 89 90 92 93 92
67 68 66 68 70 70 72 75 76 81 88 95 96 97 98 98 97 92 87 81 80 83 93 98 99 98 95 95 94 92 87 89
64 66 63 63 63 66 68 72 74 78 82 82 89 94 94 95 95 94 80 81 90 97 98 98 98 96 97 95 91 86 84 79
61 63 61 61 61 60 62 65 69 71 75 77 77 77 82 85 81 73 71 76 82 87 92 89 94 91 90 88 88 88 88 80

GFSFLT1_prec_cthk_144.txt.gz
RH
28 26 25 25 24 22 21 19 17 17 17 16 17 18 18 23 29 45 67 77 86 95 76 48 45 43 44 47 48 47 43 38
32 30 28 27 25 23 21 19 18 16 15 16 16 17 18 17 22 28 44 65 78 91 96 67 47 45 44 47 51 49 45 41
34 32 29 26 23 23 22 21 20 20 19 19 20 18 18 19 19 21 29 47 66 73 92 92 66 45 48 47 51 51 48 47
38 34 30 28 27 26 27 28 28 26 26 25 24 23 20 20 22 21 21 28 43 63 72 88 82 62 50 47 48 53 47 48
43 38 35 32 32 33 34 34 34 33 34 35 34 31 28 27 25 24 20 19 22 34 63 85 98 80 58 52 45 49 54 49
46 42 39 38 39 38 38 41 43 42 43 40 40 38 37 33 31 27 24 21 18 19 36 71 75 92 88 57 48 51 53 51
48 47 45 44 44 43 46 49 51 52 49 47 48 47 43 42 41 38 34 28 24 18 21 46 80 85 99 75 57 55 54 55
49 51 48 46 46 46 53 56 58 58 55 55 56 57 54 50 45 44 42 38 31 25 23 29 57 86 91 95 82 60 62 57
54 50 51 49 48 52 59 62 63 62 60 59 60 60 58 53 51 51 47 44 41 34 28 27 35 75 98 96 84 75 70 58
56 53 52 50 50 57 66 69 69 67 67 66 63 60 57 52 49 48 44 46 45 44 35 31 29 36 73 89 99 86 73 61
56 54 50 50 51 54 65 77 76 74 73 73 71 69 68 68 66 66 58 51 47 45 41 37 32 26 50 94 89 97 84 71
55 54 50 51 51 54 61 71 84 82 80 77 75 76 73 74 81 78 74 66 58 52 39 36 31 29 36 77 89 93 89 79
60 55 53 53 53 54 62 69 75 88 85 84 82 80 84 82 85 87 81 77 64 59 48 41 36 31 35 78 80 88 92 88
64 59 57 57 57 56 60 63 72 80 89 89 91 89 88 95 92 95 93 86 98 81 69 49 48 38 35 66 86 99 90 78
64 61 60 58 58 57 59 62 63 70 81 88 93 94 94 96 97 97 97 98 95 96 77 65 56 50 46 64 77 95 99 81
64 61 60 58 57 56 56 57 61 65 70 80 89 95 97 97 98 98 97 97 94 88 80 71 65 53 53 46 77 98 98 96
61 59 56 56 57 56 56 54 55 58 65 68 76 86 94 96 97 96 98 98 93 92 98 82 71 66 62 68 72 90 98 99
55 56 55 55 54 53 53 54 55 55 58 61 66 72 79 86 92 94 94 96 96 95 99 93 80 71 70 88 98 94 99 96
53 54 53 53 54 54 54 53 53 54 55 56 58 60 68 73 73 82 85 84 85 84 89 92 86 75 79 84 96 98 98 98

GFSFLT1_prec_cthk_147.txt.gz
RH
26 26 27 26 25 23 21 19 17 16 14 14 15 16 15 14 15 17 19 21 32 69 80 92 87 77 66 53 51 48 54 53
31 30 28 27 26 24 23 21 19 18 17 15 14 14 15 15 15 15 19 19 22 37 74 77 83 84 91 67 58 56 62 58
33 32 34 32 29 28 24 22 22 21 20 20 20 20 19 19 17 18 18 20 21 22 42 69 78 91 84 83 74 62 65 68
38 38 37 35 33 29 27 25 25 24 24 24 25 25 25 25 24 22 20 22 22 22 24 39 71 94 98 92 91 67 67 73
44 43 41 38 35 31 31 29 28 28 29 29 30 32 32 33 33 30 28 24 24 23 23 26 37 58 87 89 85 73 79 79
50 47 42 37 35 34 34 33 34 34 34 37 39 40 43 44 40 36 33 31 28 25 25 25 29 33 67 91 96 85 77 86
51 46 42 36 36 36 37 40 41 41 41 43 46 48 48 50 48 45 40 38 34 30 28 28 29 29 32 53 79 89 97 95
48 43 39 36 37 36 39 42 43 46 46 52 53 55 54 54 53 51 51 46 42 36 35 35 31 32 34 33 41 72 88 81
43 41 40 40 38 39 41 40 43 47 51 61 60 61 60 58 57 58 57 53 48 41 41 41 39 33 32 33 39 43 83 92
43 39 39 39 41 41 40 40 43 48 54 66 65 64 63 62 60 59 59 56 52 50 47 40 41 41 37 33 32 33 50 71
43 43 42 42 44 44 44 44 44 46 57 68 69 67 67 66 65 65 63 60 57 53 54 51 41 37 41 39 36 30 27 53
56 54 53 51 48 47 48 47 45 46 53 64 73 73 73 73 71 71 71 70 67 64 65 65 58 49 39 33 31 29 25 29
57 58 52 50 49 49 49 49 48 49 55 63 74 81 78 78 78 76 78 76 71 74 75 68 65 59 54 42 30 24 30 27
56 55 55 53 51 50 49 51 51 50 51 57 64 78 86 83 83 84 80 78 78 77 77 74 64 67 64 53 45 36 41 40
57 55 55 53 51 49 49 50 51 50 50 51 53 60 80 88 87 87 84 90 91 91 95 88 85 77 75 66 59 53 51 52
55 55 52 49 47 48 48 49 49 49 49 50 49 51 60 80 90 90 87 90 93 95 96 95 98 94 82 82 73 63 59 59
46 46 44 43 43 45 45 47 48 50 50 50 48 50 53 58 74 89 92 93 96 96 97 97 97 97 94 92 77 73 66 59
43 44 42 42 42 43 44 44 45 47 50 51 50 48 49 55 60 70 83 90 93 95 96 98 97 97 98 90 83 77 71 70
44 42 40 40 40 40 41 42 43 45 47 49 50 51 49 48 55 57 68 76 79 85 85 89 95 97 97 95 88 82 85 80

GFSFLT1_prec_cthk_153.txt.gz
RH
31 31 30 28 27 26 26 26 25 24 23 21 20 17 16 15 15 14 14 14 13 13 13 14 14 16 21 29 37 39 39 56
33 32 31 31 29 27 28 27 26 26 23 21 19 17 17 16 16 17 17 16 16 17 16 17 18 18 18 25 29 67 69 47
34 33 33 31 29 28 28 27 26 25 22 21 21 20 21 20 20 20 19 19 20 21 23 22 22 23 21 22 33 32 53 84
37 36 34 33 32 32 31 29 25 22 21 21 22 23 24 23 22 22 22 22 24 24 26 27 27 28 28 26 29 45 41 48
39 37 36 37 37 36 32 28 24 21 21 22 23 24 24 26 27 27 27 28 28 30 30 32 32 31 33 34 35 39 42 36
41 43 43 41 39 35 31 26 23 22 23 23 24 24 26 28 29 30 31 30 32 33 35 37 39 37 38 40 40 39 49 47
49 49 48 44 39 33 28 26 25 25 25 26 26 26 26 27 29 31 32 35 36 38 42 46 46 45 43 43 44 41 41 46
53 50 47 42 37 32 30 29 27 27 28 27 27 27 28 28 30 36 38 42 45 49 53 56 53 50 48 47 48 45 44 43
56 53 45 39 35 33 31 31 30 29 28 27 27 28 30 32 34 39 45 48 56 59 60 60 61 57 53 51 49 51 50 47
50 45 40 37 36 36 35 33 30 30 30 29 29 30 33 35 37 40 47 53 63 65 66 65 64 61 57 53 52 52 52 53
45 41 40 37 36 35 32 31 32 33 32 31 31 31 32 34 36 40 45 53 63 69 69 67 65 63 62 61 55 52 56 58
44 41 38 38 35 34 33 33 32 32 33 33 34 34 34 35 36 40 44 50 58 71 72 70 68 65 64 62 63 62 58 57
46 42 38 35 35 35 34 33 33 32 31 30 29 29 31 33 35 39 42 46 53 65 73 73 71 69 67 64 66 64 62 59
45 42 39 37 33 32 30 29 28 28 28 29 26 25 26 30 34 36 39 44 48 54 69 75 74 73 73 71 69 72 69 67
46 41 36 33 30 29 29 28 27 29 32 31 28 26 26 27 30 34 37 41 45 47 61 73 78 77 76 77 79 79 82 82
44 38 34 31 31 30 28 28 30 34 34 32 30 29 29 29 30 32 36 40 45 47 50 64 77 81 79 77 82 85 92 92
38 34 33 33 32 30 30 31 33 33 32 29 27 28 29 30 30 32 35 38 43 47 50 53 63 80 84 85 88 96 98 95
36 35 35 34 33 33 34 31 29 28 27 24 25 26 27 28 29 31 33 36 39 43 45 50 54 64 80 86 88 97 96 97
37 37 36 36 35 32 28 27 26 24 22 22 23 24 24 26 27 29 29 32 33 35 37 40 44 49 65 77 85 87 93 97